EW5842 Weather Reports


time (UTC)temp
C
wind
direction
speed
KPH
gust
KPH
rain 1hr
cm
rain 24hr
cm
rain mn
cm
humidity
%
barometer
mb
20260507183515 32 338 3.2 9.7 0.00 0.00 0.00 12 1016.0
20260507182517 31 23 4.8 16.1 0.00 0.00 0.00 12 1015.8
20260507181515 32 23 4.8 12.9 0.00 0.00 0.00 12 1016.2
20260507180515 31 90 3.2 9.7 0.00 0.00 0.00 13 1016.1
20260507175536 31 135 1.6 9.7 0.00 0.00 0.00 13 1016.2
20260507174515 30 113 6.4 14.5 0.00 0.00 0.00 14 1016.1
20260507173517 30 113 4.8 11.3 0.00 0.00 0.00 13 1016.4
20260507172518 29 113 4.8 12.9 0.00 0.00 0.00 14 1016.4
20260507171600 29 135 4.8 9.7 0.00 0.00 0.00 14 1016.3
20260507170517 29 113 4.8 17.7 0.00 0.00 0.00 14 1016.4
20260507165517 29 90 8.0 19.3 0.00 0.00 0.00 14 1016.6
20260507164517 28 113 9.7 20.9 0.00 0.00 0.00 14 1016.3
20260507163517 28 45 6.4 16.1 0.00 0.00 0.00 14 1016.4
20260507162517 28 45 8.0 19.3 0.00 0.00 0.00 14 1016.7
20260507161517 27 68 9.7 22.5 0.00 0.00 0.00 14 1016.6
20260507160517 27 0 6.4 19.3 0.00 0.00 0.00 14 1016.7
20260507155517 27 23 8.0 19.3 0.00 0.00 0.00 14 1016.7
20260507154517 26 68 6.4 19.3 0.00 0.00 0.00 15 1016.8
20260507153517 26 0 8.0 17.7 0.00 0.00 0.00 15 1016.8
20260507152517 26 0 6.4 17.7 0.00 0.00 0.00 15 1017.0
20260507151517 25 45 6.4 14.5 0.00 0.00 0.00 15 1017.0
20260507150517 25 68 9.7 22.5 0.00 0.00 0.00 15 1017.0
20260507145517 25 23 6.4 17.7 0.00 0.00 0.00 16 1017.1
20260507144518 24 90 6.4 16.1 0.00 0.00 0.00 16 1017.0
20260507143517 23 68 11.3 20.9 0.00 0.00 0.00 16 1017.1
20260507142517 23 68 8.0 17.7 0.00 0.00 0.00 17 1017.1
20260507141517 23 113 8.0 17.7 0.00 0.00 0.00 17 1016.9
20260507140517 22 90 6.4 17.7 0.00 0.00 0.00 18 1016.9
20260507135518 22 90 6.4 14.5 0.00 0.00 0.00 19 1016.9
20260507134517 21 90 8.0 17.7 0.00 0.00 0.00 21 1016.6
20260507133517 20 113 6.4 17.7 0.00 0.00 0.00 24 1016.6
20260507132517 20 90 6.4 14.5 0.00 0.00 0.00 24 1016.6
20260507131517 20 68 6.4 17.7 0.00 0.00 0.00 23 1016.7
20260507130517 19 68 8.0 17.7 0.00 0.00 0.00 25 1016.5
20260507125516 18 68 8.0 17.7 0.00 0.00 0.00 28 1016.4
20260507124537 17 23 4.8 16.1 0.00 0.00 0.00 31 1016.0
20260507123518 15 0.0 3.2 0.00 0.00 0.00 37 1015.8
20260507122517 15 0.0 3.2 0.00 0.00 0.00 38 1015.8
20260507121538 16 0.0 0.0 0.00 0.00 0.00 37 1016.0
20260507120517 15 0.0 4.8 0.00 0.00 0.00 37 1016.0
20260507115617 15 0.0 0.0 0.00 0.00 0.00 38 1016.1
20260507114516 16 0.0 1.6 0.00 0.00 0.00 37 1016.2
20260507113517 16 68 1.6 4.8 0.00 0.00 0.00 35 1016.4
20260507112516 16 0.0 3.2 0.00 0.00 0.00 35 1016.7
20260507111537 17 68 1.6 6.4 0.00 0.00 0.00 34 1016.8
20260507110517 17 68 3.2 6.4 0.00 0.00 0.00 34 1016.7
20260507105537 17 68 1.6 6.4 0.00 0.00 0.00 34 1016.8
20260507104516 17 23 1.6 4.8 0.00 0.00 0.00 34 1017.1
20260507103516 17 45 3.2 6.4 0.00 0.00 0.00 33 1017.1
20260507102537 18 0 3.2 6.4 0.00 0.00 0.00 33 1017.0
20260507101517 17 45 3.2 9.7 0.00 0.00 0.00 33 1017.1
20260507100517 17 68 3.2 6.4 0.00 0.00 0.00 33 1017.2
20260507095517 17 68 1.6 6.4 0.00 0.00 0.00 33 1017.2
20260507094558 18 68 3.2 8.0 0.00 0.00 0.00 32 1017.3
20260507093516 17 68 3.2 6.4 0.00 0.00 0.00 33 1017.2
20260507092516 17 68 3.2 4.8 0.00 0.00 0.00 33 1017.3
20260507091516 17 68 3.2 6.4 0.00 0.00 0.00 33 1017.4
20260507090516 17 68 4.8 6.4 0.00 0.00 0.00 33 1017.6
20260507085516 17 90 1.6 3.2 0.00 0.00 0.00 33 1017.5
20260507084516 17 90 1.6 4.8 0.00 0.00 0.00 34 1017.4
20260507083516 16 68 3.2 4.8 0.00 0.00 0.00 35 1017.2
20260507082516 16 90 1.6 4.8 0.00 0.00 0.00 36 1017.6
20260507081518 16 0.0 1.6 0.00 0.00 0.00 35 1017.6
20260507080516 16 0.0 1.6 0.00 0.00 0.00 35 1017.6
20260507075516 16 0.0 1.6 0.00 0.00 0.00 35 1017.4
20260507074516 16 23 1.6 3.2 0.00 0.00 0.00 35 1017.5
20260507073516 16 0.0 3.2 0.00 0.00 0.00 35 1017.6
20260507072516 16 0.0 1.6 0.00 0.00 0.00 36 1017.5
20260507071516 16 0.0 0.0 0.00 0.00 0.00 36 1017.6
20260507070516 16 0.0 0.0 0.00 0.00 0.00 36 1017.5
20260507065517 16 0.0 0.0 0.00 0.00 0.00 36 1017.6
20260507064516 16 0.0 0.0 0.00 0.00 0.00 37 1017.6
20260507063517 16 0.0 0.0 0.00 0.00 0.00 36 1017.5
20260507062516 16 0.0 0.0 0.00 0.00 0.00 36 1017.3
20260507061538 17 0.0 0.0 0.00 0.00 0.00 36 1017.3
20260507060517 16 0.0 0.0 0.00 0.00 0.00 36 1017.0
20260507055517 17 0.0 0.0 0.00 0.00 0.00 35 1017.2
20260507054537 17 0.0 0.0 0.00 0.00 0.00 35 1017.0
20260507053517 17 0.0 0.0 0.00 0.00 0.00 35 1017.1
20260507052516 17 0.0 0.0 0.00 0.00 0.00 35 1016.9
20260507051517 18 0.0 0.0 0.00 0.00 0.00 34 1016.9
20260507050538 17 0.0 0.0 0.00 0.00 0.00 35 1016.8
20260507045516 18 0.0 0.0 0.00 0.00 0.00 34 1017.0
20260507044516 18 0.0 0.0 0.00 0.00 0.00 35 1016.9
20260507043536 18 0.0 0.0 0.00 0.00 0.00 36 1016.9
20260507042516 18 0.0 0.0 0.00 0.00 0.00 36 1016.7
20260507041516 18 0.0 0.0 0.00 0.00 0.00 34 1016.5
20260507040518 19 0.0 0.0 0.00 0.00 0.00 34 1016.6
20260507035536 20 0.0 1.6 0.00 0.00 0.00 33 1016.2
20260507034516 20 0.0 0.0 0.00 0.00 0.00 33 1016.1
20260507033518 20 0.0 1.6 0.00 0.00 0.00 33 1016.1
20260507032516 20 0.0 0.0 0.00 0.00 0.00 32 1015.9
20260507031539 20 0.0 1.6 0.00 0.00 0.00 32 1015.8
20260507030516 20 0.0 0.0 0.00 0.00 0.00 32 1015.7
20260507025517 21 0.0 1.6 0.00 0.00 0.00 31 1015.4
20260507024516 21 0.0 0.0 0.00 0.00 0.00 30 1015.3
20260507023516 21 270 1.6 3.2 0.00 0.00 0.00 30 1015.4
20260507022516 22 270 1.6 4.8 0.00 0.00 0.00 29 1015.1
20260507021517 22 270 3.2 8.0 0.00 0.00 0.00 28 1015.1
20260507020516 22 270 3.2 8.0 0.00 0.00 0.00 28 1015.2
20260507015516 23 270 3.2 9.7 0.00 0.00 0.00 27 1014.8
20260507014536 23 248 3.2 9.7 0.00 0.00 0.00 27 1014.8
20260507013517 23 270 3.2 9.7 0.00 0.00 0.00 27 1014.7
20260507012556 24 248 4.8 9.7 0.00 0.00 0.00 27 1014.4
20260507011517 24 248 4.8 14.5 0.00 0.00 0.00 26 1014.5
20260507010536 25 270 4.8 11.3 0.00 0.00 0.00 26 1014.4
20260507005516 25 248 4.8 16.1 0.00 0.00 0.00 26 1014.7
20260507004516 25 248 4.8 14.5 0.00 0.00 0.00 25 1014.6
20260507003516 25 270 3.2 8.0 0.00 0.00 0.00 25 1014.6
20260507002516 25 270 4.8 11.3 0.00 0.00 0.00 25 1014.5
20260507001516 25 270 6.4 14.5 0.00 0.00 0.00 25 1014.4
20260507000516 25 248 4.8 14.5 0.00 0.00 0.00 25 1014.4
20260506235517 25 248 4.8 11.3 0.00 0.00 0.00 25 1014.5
20260506234517 25 180 6.4 9.7 0.00 0.00 0.00 25 1014.6
20260506233516 26 270 4.8 11.3 0.00 0.00 0.00 25 1014.9
20260506232516 26 338 6.4 11.3 0.00 0.00 0.00 24 1014.8
20260506231536 26 248 4.8 11.3 0.00 0.00 0.00 24 1014.8
20260506230515 27 315 4.8 9.7 0.00 0.00 0.00 24 1015.1
20260506225517 25 203 6.4 16.1 0.00 0.00 0.00 25 1014.9
20260506224536 26 225 8.0 17.7 0.00 0.00 0.00 24 1015.1
20260506223517 26 315 3.2 11.3 0.00 0.00 0.00 24 1015.2
20260506222516 27 338 4.8 16.1 0.00 0.00 0.00 24 1015.7
20260506221537 26 338 6.4 14.5 0.00 0.00 0.00 24 1015.8
20260506220517 25 203 8.0 16.1 0.00 0.00 0.00 25 1015.8
20260506215515 25 225 6.4 16.1 0.00 0.00 0.00 25 1015.8
20260506214517 26 338 4.8 11.3 0.00 0.00 0.00 24 1016.3
20260506213536 25 248 6.4 17.7 0.00 0.00 0.00 25 1016.4
20260506212515 26 248 4.8 11.3 0.00 0.00 0.00 26 1016.5
20260506211516 25 270 8.0 17.7 0.00 0.00 0.00 26 1016.5
20260506210516 26 248 4.8 12.9 0.00 0.00 0.00 25 1016.7
20260506205515 26 338 1.6 9.7 0.00 0.00 0.00 25 1017.1
20260506204515 26 248 4.8 14.5 0.00 0.00 0.00 26 1017.2
20260506203515 24 180 3.2 9.7 0.00 0.00 0.00 27 1017.2
20260506202515 25 248 6.4 16.1 0.00 0.00 0.00 26 1017.5
20260506201517 26 338 3.2 14.5 0.00 0.00 0.00 25 1017.5
20260506200517 26 293 3.2 14.5 0.00 0.00 0.00 26 1017.5
20260506195518 25 225 4.8 16.1 0.00 0.00 0.00 26 1017.7
20260506194519 24 203 6.4 17.7 0.00 0.00 0.00 28 1017.6
20260506193517 23 203 6.4 16.1 0.00 0.00 0.00 28 1017.8
20260506192517 25 338 3.2 9.7 0.00 0.00 0.00 27 1017.7
20260506191517 23 180 4.8 9.7 0.00 0.00 0.00 29 1017.6
20260506190517 23 338 3.2 9.7 0.00 0.00 0.00 29 1017.8
20260506185517 23 315 6.4 17.7 0.00 0.00 0.00 28 1018.0
20260506184537 23 338 1.6 8.0 0.00 0.00 0.00 28 1018.2